When you browse on this site, cookies collect data to enhance your experience and personalize the content and advertising you see.
Visit our Privacy Policy to learn more. By continuing to use the site, you agree to this use of cookies and data.
  • In Slovakia
  • List of Countries
  • For 7 days
  • Water Temperature
  • Weather Map
  • Weather Widgets
  • user-avatar
    Login

    Hourly Weather Bardejov

    Today, 26 May, Tuesday

    Time Temperature Precipitation Wind Pressure Humidity
    00:00 +6°C° 0 mm 2 mps 733 mmHg 97%
    01:00 +6°C° 0 mm 2 mps 734 mmHg 98%
    02:00 +6°C° 0 mm 2 mps 734 mmHg 98%
    03:00 +6°C° 0 mm 2 mps 734 mmHg 98%
    04:00 +6°C° 0 mm 2 mps 734 mmHg 98%
    05:00 +7°C° 0 mm 3 mps 734 mmHg 94%
    06:00 +8°C° 0 mm 3 mps 734 mmHg 91%
    07:00 +8°C° 0 mm 4 mps 735 mmHg 87%
    08:00 +10°C° 0.1 mm 4 mps 735 mmHg 82%
    09:00 +11°C° 0.1 mm 4 mps 735 mmHg 78%
    10:00 +13°C° 0.1 mm 4 mps 735 mmHg 73%
    11:00 +13°C° 0.6 mm 4 mps 734 mmHg 76%
    12:00 +13°C° 0.6 mm 5 mps 734 mmHg 78%
    13:00 +14°C° 0.6 mm 5 mps 734 mmHg 80%
    14:00 +13°C° 0.7 mm 5 mps 734 mmHg 83%
    15:00 +13°C° 0.7 mm 5 mps 734 mmHg 85%
    16:00 +13°C° 0.7 mm 5 mps 734 mmHg 88%
    17:00 +12°C° 0.3 mm 4 mps 734 mmHg 90%
    18:00 +11°C° 0.3 mm 4 mps 734 mmHg 92%
    19:00 +10°C° 0.3 mm 3 mps 734 mmHg 94%
    20:00 +10°C° 0.1 mm 3 mps 734 mmHg 94%
    21:00 +10°C° 0.1 mm 3 mps 735 mmHg 95%
    22:00 +9°C° 0.1 mm 3 mps 735 mmHg 96%
    23:00 +9°C° 0 mm 3 mps 735 mmHg 96%

    Tomorrow, 27 May, Wednesday

    Time Temperature Precipitation Wind Pressure Humidity
    00:00 +9°C° 0 mm 3 mps 735 mmHg 97%
    01:00 +8°C° 0 mm 3 mps 735 mmHg 98%
    02:00 +9°C° 0 mm 3 mps 735 mmHg 97%
    03:00 +9°C° 0 mm 3 mps 735 mmHg 97%
    04:00 +9°C° 0 mm 3 mps 735 mmHg 97%
    05:00 +10°C° 0 mm 3 mps 735 mmHg 94%
    06:00 +10°C° 0 mm 4 mps 735 mmHg 92%
    07:00 +11°C° 0 mm 4 mps 735 mmHg 90%
    08:00 +11°C° 0.1 mm 4 mps 735 mmHg 88%
    09:00 +12°C° 0.1 mm 4 mps 735 mmHg 87%
    10:00 +12°C° 0.1 mm 4 mps 735 mmHg 85%
    11:00 +13°C° 0.4 mm 4 mps 735 mmHg 82%
    12:00 +14°C° 0.4 mm 4 mps 735 mmHg 79%
    13:00 +15°C° 0.4 mm 5 mps 734 mmHg 77%
    14:00 +15°C° 0.5 mm 4 mps 734 mmHg 77%
    15:00 +15°C° 0.5 mm 4 mps 734 mmHg 77%
    16:00 +15°C° 0.5 mm 4 mps 734 mmHg 77%
    17:00 +14°C° 0.3 mm 4 mps 734 mmHg 81%
    18:00 +13°C° 0.3 mm 3 mps 734 mmHg 85%
    19:00 +13°C° 0.3 mm 2 mps 734 mmHg 90%
    20:00 +12°C° 0 mm 2 mps 734 mmHg 92%
    21:00 +10°C° 0 mm 2 mps 734 mmHg 94%
    22:00 +9°C° 0 mm 2 mps 734 mmHg 96%
    23:00 +9°C° 0 mm 2 mps 734 mmHg 96%

    Day after tomorrow, 28 May, Thursday

    Time Temperature Precipitation Wind Pressure Humidity
    00:00 +8°C° 0 mm 2 mps 733 mmHg 96%
    01:00 +8°C° 0 mm 2 mps 733 mmHg 97%
    02:00 +8°C° 0 mm 2 mps 733 mmHg 97%
    03:00 +7°C° 0 mm 2 mps 733 mmHg 97%
    04:00 +7°C° 0 mm 2 mps 732 mmHg 97%
    05:00 +9°C° 0 mm 2 mps 732 mmHg 92%
    06:00 +12°C° 0 mm 2 mps 733 mmHg 87%
    07:00 +13°C° 0 mm 2 mps 733 mmHg 82%
    08:00 +13°C° 0.1 mm 3 mps 732 mmHg 76%
    09:00 +14°C° 0.1 mm 3 mps 732 mmHg 70%
    10:00 +15°C° 0.1 mm 4 mps 732 mmHg 64%
    11:00 +14°C° 0.3 mm 4 mps 732 mmHg 70%
    12:00 +13°C° 0.3 mm 4 mps 731 mmHg 76%
    13:00 +12°C° 0.3 mm 5 mps 731 mmHg 82%
    14:00 +12°C° 0.1 mm 4 mps 731 mmHg 78%
    15:00 +12°C° 0.1 mm 4 mps 731 mmHg 74%
    16:00 +12°C° 0.1 mm 4 mps 730 mmHg 69%
    17:00 +11°C° 0 mm 3 mps 730 mmHg 74%
    18:00 +12°C° 0 mm 2 mps 730 mmHg 79%
    19:00 +10°C° 0 mm 2 mps 730 mmHg 83%
    20:00 +9°C° 0 mm 2 mps 730 mmHg 88%
    21:00 +8°C° 0 mm 2 mps 730 mmHg 92%
    22:00 +7°C° 0 mm 2 mps 730 mmHg 96%
    23:00 +8°C° 0.1 mm 2 mps 730 mmHg 95%

    29 May, Friday

    Time Temperature Precipitation Wind Pressure Humidity
    00:00 +8°C° 0.1 mm 3 mps 730 mmHg 93%
    01:00 +9°C° 0.1 mm 3 mps 730 mmHg 92%
    02:00 +8°C° 0.1 mm 3 mps 730 mmHg 92%
    03:00 +7°C° 0.1 mm 3 mps 730 mmHg 92%
    04:00 +7°C° 0.1 mm 3 mps 729 mmHg 93%
    05:00 +7°C° 0.3 mm 3 mps 729 mmHg 92%
    06:00 +7°C° 0.3 mm 3 mps 730 mmHg 90%
    07:00 +6°C° 0.3 mm 4 mps 730 mmHg 89%
    08:00 +7°C° 0.1 mm 4 mps 730 mmHg 87%
    09:00 +7°C° 0.1 mm 4 mps 730 mmHg 85%
    10:00 +8°C° 0.1 mm 4 mps 730 mmHg 83%
    11:00 +8°C° 0 mm 4 mps 730 mmHg 81%
    12:00 +10°C° 0 mm 4 mps 730 mmHg 80%
    13:00 +10°C° 0 mm 4 mps 730 mmHg 78%
    14:00 +10°C° 0 mm 4 mps 730 mmHg 78%
    15:00 +10°C° 0 mm 4 mps 730 mmHg 79%
    16:00 +10°C° 0 mm 4 mps 729 mmHg 79%
    17:00 +9°C° 0 mm 3 mps 729 mmHg 82%
    18:00 +9°C° 0 mm 3 mps 729 mmHg 84%
    19:00 +9°C° 0 mm 2 mps 729 mmHg 87%
    20:00 +9°C° 0 mm 2 mps 730 mmHg 88%
    21:00 +8°C° 0 mm 2 mps 730 mmHg 90%
    22:00 +8°C° 0 mm 3 mps 730 mmHg 91%
    23:00 +8°C° 0.1 mm 3 mps 730 mmHg 92%

    30 May, Saturday

    Time Temperature Precipitation Wind Pressure Humidity
    00:00 +8°C° 0.1 mm 3 mps 730 mmHg 93%
    01:00 +8°C° 0.1 mm 3 mps 730 mmHg 93%
    02:00 +8°C° 0.1 mm 3 mps 730 mmHg 94%
    03:00 +8°C° 0.1 mm 3 mps 729 mmHg 95%
    04:00 +7°C° 0.1 mm 3 mps 729 mmHg 95%
    05:00 +7°C° 0 mm 3 mps 729 mmHg 92%
    06:00 +7°C° 0 mm 3 mps 729 mmHg 89%
    07:00 +8°C° 0 mm 3 mps 729 mmHg 86%
    08:00 +8°C° 0 mm 4 mps 729 mmHg 76%
    09:00 +10°C° 0 mm 4 mps 729 mmHg 67%
    10:00 +12°C° 0 mm 4 mps 730 mmHg 57%
    11:00 +13°C° 0 mm 4 mps 729 mmHg 55%
    12:00 +13°C° 0 mm 4 mps 729 mmHg 53%
    13:00 +14°C° 0 mm 4 mps 729 mmHg 52%
    14:00 +14°C° 0 mm 4 mps 728 mmHg 53%
    15:00 +14°C° 0 mm 4 mps 728 mmHg 55%
    16:00 +14°C° 0 mm 4 mps 728 mmHg 56%
    17:00 +12°C° 0 mm 3 mps 728 mmHg 65%
    18:00 +12°C° 0 mm 2 mps 727 mmHg 74%
    19:00 +9°C° 0 mm 2 mps 727 mmHg 82%
    20:00 +8°C° 0 mm 2 mps 727 mmHg 86%
    21:00 +7°C° 0 mm 2 mps 727 mmHg 91%
    22:00 +6°C° 0 mm 2 mps 728 mmHg 95%
    23:00 +6°C° 0 mm 1 mps 727 mmHg 95%

    31 May, Sunday

    Time Temperature Precipitation Wind Pressure Humidity
    00:00 +6°C° 0 mm 1 mps 727 mmHg 95%
    01:00 +6°C° 0 mm 1 mps 727 mmHg 95%
    02:00 +6°C° 0 mm 1 mps 727 mmHg 95%
    03:00 +5°C° 0 mm 1 mps 727 mmHg 95%
    04:00 +5°C° 0 mm 1 mps 727 mmHg 95%
    05:00 +6°C° 0 mm 2 mps 727 mmHg 87%
    06:00 +9°C° 0 mm 2 mps 727 mmHg 79%
    07:00 +12°C° 0 mm 2 mps 727 mmHg 71%
    08:00 +12°C° 0 mm 3 mps 727 mmHg 67%
    09:00 +13°C° 0 mm 3 mps 727 mmHg 63%
    10:00 +14°C° 0 mm 3 mps 727 mmHg 58%
    11:00 +16°C° 0.1 mm 3 mps 727 mmHg 55%
    12:00 +17°C° 0.1 mm 3 mps 727 mmHg 52%
    13:00 +17°C° 0.1 mm 2 mps 726 mmHg 49%
    14:00 +17°C° 0.1 mm 2 mps 726 mmHg 53%
    15:00 +17°C° 0.1 mm 2 mps 726 mmHg 56%
    16:00 +16°C° 0.1 mm 2 mps 726 mmHg 60%
    17:00 +15°C° 0.1 mm 2 mps 725 mmHg 69%
    18:00 +13°C° 0.1 mm 2 mps 725 mmHg 77%
    19:00 +10°C° 0.1 mm 2 mps 725 mmHg 86%
    20:00 +10°C° 0 mm 1 mps 725 mmHg 89%
    21:00 +8°C° 0 mm 1 mps 725 mmHg 92%
    22:00 +7°C° 0 mm 1 mps 725 mmHg 95%
    23:00 +7°C° 0 mm 1 mps 725 mmHg 95%
    Show more